Regional Weather Roundup
Issued by NWS Green Bay, WI

Home | Current Version | Previous Version | Graphics & Text | Print | Product List | Glossary Off
Versions: 1 2 3 4 5 6 7 8 9 10 11 12 13 14 15 16 17 18 19 20 21 22 23 24 25 26 27 28 29 30 31 32 33 34 35 36 37 38 39 40 41 42 43 44 45 46 47 48 49 50

000
ASUS43 KGRB 081000
RWRGRB

NORTH-CENTRAL AND NORTHEAST WISCONSIN REGIONAL WEATHER ROUNDUP
NATIONAL WEATHER SERVICE GREEN BAY WI
400 AM CST MON FEB 08 2016

WIZ005-009-010>012-018-019-081100-
NORTH CENTRAL WISCONSIN

CITY           SKY/WX    TMP DP  RH WIND       PRES   REMARKS
IRONWOOD       CLOUDY    21  19  93 N9        29.61R
MANITOWISH WTR NOT AVBL
ARBOR VITAE    NOT AVBL
EAGLE RIVER    NOT AVBL
LAND O LAKES   NOT AVBL
RHINELANDER    CLOUDY    25  22  88 W8        29.53R
PHILLIPS       NOT AVBL
ANTIGO         NOT AVBL
TOMAHAWK       NOT AVBL
MERRILL        NOT AVBL
$$

WIZ013-073-081100-
NORTHEAST WISCONSIN

CITY           SKY/WX    TMP DP  RH WIND       PRES   REMARKS
IRON MOUNTAIN  CLOUDY    28  27  96 CALM      29.51R FOG
MARINETTE      CLOUDY    32  27  80 CALM      29.54S
$$

WIZ017-030-035>037-045-081100-
CENTRAL WISCONSIN

CITY           SKY/WX    TMP DP  RH WIND       PRES   REMARKS
MEDFORD        NOT AVBL
WAUSAU         CLOUDY    26  21  81 NW10      29.55S
MOSINEE        NOT AVBL
MARSHFIELD     LGT SNOW  21  15  78 NW15      29.59R WCI   8
WISC RAPIDS    FLURRIES  23  17  78 NW14      29.62S
STEVENS POINT  NOT AVBL
WAUPACA        NOT AVBL
SHAWANO        NOT AVBL
CLINTONVILLE   NOT AVBL
WAUTOMA        NOT AVBL
$$

WIZ038-039-048-051-081100-
FOX VALLEY

CITY           SKY/WX    TMP DP  RH WIND       PRES   REMARKS
NWS GREEN BAY  FLURRIES  33  30  88 W6        29.55S
APPLETON       NOT AVBL
OSHKOSH        FLURRIES  30  25  81 NW8       29.56S
FOND DU LAC    CLOUDY    32  28  85 NW8       29.57S
$$

WIZ022-050-052-081100-
EAST CENTRAL WISCONSIN

CITY           SKY/WX    TMP DP  RH WIND       PRES   REMARKS
EPHRAIM        NOT AVBL
STURGEON BAY   CLOUDY    34  27  75 SW5       29.57R
MANITOWOC      NOT AVBL
SHEBOYGAN      CLOUDY    31  27  85 SW5       29.56S
$$

LMZ563-521-522-541>543-081100-
LAKESHORE

STATION/POSITION TIME  TEMP    WIND        PRES    VSBY  WAVE
                       AIR SEA DIR/SP/G                  HT/PER
                 (UTC) (F)     (DEG/KT/KT) (MB)    (MI)  (FT/S)
SHEBOYGAN LKSHOR 0900   33     240/  8/  9 1001.8F
KEWAUNEE LKSHORE 0900   34     240/  5/ 10 1000.2F
NORTHPORT PIER   0900   34        CALM     1000.7S
CHAMBERS ISLAND  0900   33     200/  5/  7 1001.0
MENOMINEE LKSHOR 0900   33     210/  2      999.4F
$$



USA.gov is the U.S. government's official web portal to all federal, state and local government web resources and services.